Location: Sweet Grass
(48.9965°N, 111.9649°W)
Time: 08:33:54
(UTC+00:00)

EO-79 - Pass Details

Date: 04 April 2023
Orbit: 578 x 593 km, 98.0° (Epoch: 03 June)

Event Time Altitude Azimuth Distance (km) Brightness Sun altitude
Rises 11:01:23 0° 1° (N) 2,830 ? -18.8°
Reaches altitude 10° 11:04:03 10° 343° (NNW) 1,920 ? -18.4°
Maximum altitude 11:06:57 19° 299° (WNW) 1,430 ? -18.0°
Enters shadow 11:07:03 19° 297° (WNW) 1,431 ? -18.0°
